{"data":{"norad_id":43463,"epoch":"2026-05-25T00:53:13.539264Z","epoch_age_seconds":86039,"freshness":"FRESH","line1":"1 43463U 18044A   26145.03696226 -.00000365  00000+0  00000+0 0  9992","line2":"2 43463   0.0458 112.4260 0001931 309.8237 312.7916  1.00271792 29471","mean_motion":1.00271792,"eccentricity":0.0001931,"inclination_deg":0.0458,"raan_deg":112.426,"arg_perigee_deg":309.8237,"mean_anomaly_deg":312.7916,"bstar":0,"rev_number":2947,"period_min":1436.0968037751,"perigee_km":35778.450989474,"apogee_km":35794.735008199,"semimajor_km":42164.729998837,"source":"CELESTRAK","updated_at":"2026-05-25T13:38:14.054367Z"}}